Retour au catalogue

SPACEWAY 1

ActifCommunicationsGEO
NORAD 28644·PAYLOAD·🇺🇸 United States

Lancé Apr 26, 2005 depuis Sea Launch Platform

Loading…

TLE

FraisSource: Space-Track

Époque: Sep 14, 2026, 13:23 UTC

1 28644U 05015A   26257.55785102 -.00000030  00000-0  00000-0 0  9994
2 28644   6.9237  69.6511 0006002 138.6386 204.3519  0.98490440 47052

Suivez SPACEWAY 1 en temps réel avec AllMySat

Download on the App Store